Year,Month,Day,Hour,Minute,Value (Times are PST for temperature in C)
2017,09,07,00,00,15.50
2017,09,07,00,01,15.50
2017,09,07,00,02,15.50
2017,09,07,00,03,15.50
2017,09,07,00,04,15.50
2017,09,07,00,05,15.50
2017,09,07,00,06,15.50
2017,09,07,00,07,15.50
2017,09,07,00,08,15.60
2017,09,07,00,09,15.60
2017,09,07,00,10,15.60
2017,09,07,00,11,15.60
2017,09,07,00,12,15.60
2017,09,07,00,13,15.60
2017,09,07,00,14,15.60
2017,09,07,00,15,15.60
2017,09,07,00,16,15.60
2017,09,07,00,17,15.60
2017,09,07,00,18,15.60
2017,09,07,00,19,15.60
2017,09,07,00,20,15.60
2017,09,07,00,21,15.60
2017,09,07,00,22,15.50
2017,09,07,00,23,15.50
2017,09,07,00,24,15.50
2017,09,07,00,25,15.50
2017,09,07,00,26,15.50
2017,09,07,00,27,15.40
2017,09,07,00,28,15.40
2017,09,07,00,29,15.40
2017,09,07,00,30,15.40
2017,09,07,00,31,15.30
2017,09,07,00,32,15.30
2017,09,07,00,33,15.30
2017,09,07,00,34,15.30
2017,09,07,00,35,15.20
2017,09,07,00,36,15.20
2017,09,07,00,37,15.20
2017,09,07,00,38,15.10
2017,09,07,00,39,15.10
2017,09,07,00,40,15.10
2017,09,07,00,41,15.10
2017,09,07,00,42,15.00
2017,09,07,00,43,15.00
2017,09,07,00,44,15.00
2017,09,07,00,45,15.00
2017,09,07,00,46,15.00
2017,09,07,00,47,15.00
2017,09,07,00,48,14.90
2017,09,07,00,49,14.90
2017,09,07,00,50,14.90
2017,09,07,00,51,14.90
2017,09,07,00,52,14.90
2017,09,07,00,53,14.90
2017,09,07,00,54,14.90
2017,09,07,00,55,14.90
2017,09,07,00,56,14.80
2017,09,07,00,57,14.80
2017,09,07,00,58,14.80
2017,09,07,00,59,14.80
2017,09,07,01,00,14.80
2017,09,07,01,01,14.80
2017,09,07,01,02,14.80
2017,09,07,01,03,14.80
2017,09,07,01,04,14.80
2017,09,07,01,05,14.70
2017,09,07,01,06,14.70
2017,09,07,01,07,14.70
2017,09,07,01,08,14.70
2017,09,07,01,09,14.70
2017,09,07,01,10,14.70
2017,09,07,01,11,14.70
2017,09,07,01,12,14.70
2017,09,07,01,13,14.70
2017,09,07,01,14,14.60
2017,09,07,01,15,14.60
2017,09,07,01,16,14.60
2017,09,07,01,17,14.60
2017,09,07,01,18,14.60
2017,09,07,01,19,14.60
2017,09,07,01,20,14.60
2017,09,07,01,21,14.60
2017,09,07,01,22,14.60
2017,09,07,01,23,14.60
2017,09,07,01,24,14.60
2017,09,07,01,25,14.60
2017,09,07,01,26,14.60
2017,09,07,01,27,14.60
2017,09,07,01,28,14.50
2017,09,07,01,29,14.50
2017,09,07,01,30,14.50
2017,09,07,01,31,14.50
2017,09,07,01,32,14.40
2017,09,07,01,33,14.40
2017,09,07,01,34,14.40
2017,09,07,01,35,14.40
2017,09,07,01,36,14.40
2017,09,07,01,37,14.40
2017,09,07,01,38,14.40
2017,09,07,01,39,14.40
2017,09,07,01,40,14.40
2017,09,07,01,41,14.40
2017,09,07,01,42,14.40
2017,09,07,01,43,14.40
2017,09,07,01,44,14.40
2017,09,07,01,45,14.40
2017,09,07,01,46,14.40
2017,09,07,01,47,14.40
2017,09,07,01,48,14.40
2017,09,07,01,49,14.40
2017,09,07,01,50,14.40
2017,09,07,01,51,14.40
2017,09,07,01,52,14.40
2017,09,07,01,53,14.40
2017,09,07,01,54,14.40
2017,09,07,01,55,14.40
2017,09,07,01,56,14.40
2017,09,07,01,57,14.40
2017,09,07,01,58,14.40
2017,09,07,01,59,14.40
2017,09,07,02,00,14.40
2017,09,07,02,01,14.40
2017,09,07,02,02,14.40
2017,09,07,02,03,14.40
2017,09,07,02,04,14.40
2017,09,07,02,05,14.40
2017,09,07,02,06,14.40
2017,09,07,02,07,14.30
2017,09,07,02,08,14.30
2017,09,07,02,09,14.30
2017,09,07,02,10,14.30
2017,09,07,02,11,14.30
2017,09,07,02,12,14.30
2017,09,07,02,13,14.30
2017,09,07,02,14,14.30
2017,09,07,02,15,14.30
2017,09,07,02,16,14.30
2017,09,07,02,17,14.30
2017,09,07,02,18,14.30
2017,09,07,02,19,14.30
2017,09,07,02,20,14.30
2017,09,07,02,21,14.20
2017,09,07,02,22,14.20
2017,09,07,02,23,14.20
2017,09,07,02,24,14.20
2017,09,07,02,25,14.20
2017,09,07,02,26,14.20
2017,09,07,02,27,14.10
2017,09,07,02,28,14.10
2017,09,07,02,29,14.10
2017,09,07,02,30,14.10
2017,09,07,02,31,14.10
2017,09,07,02,32,14.10
2017,09,07,02,33,14.10
2017,09,07,02,34,14.10
2017,09,07,02,35,14.10
2017,09,07,02,36,14.10
2017,09,07,02,37,14.10
2017,09,07,02,38,14.10
2017,09,07,02,39,14.10
2017,09,07,02,40,14.10
2017,09,07,02,41,14.10
2017,09,07,02,42,14.10
2017,09,07,02,43,14.10
2017,09,07,02,44,14.10
2017,09,07,02,45,14.00
2017,09,07,02,46,14.00
2017,09,07,02,47,14.00
2017,09,07,02,48,14.00
2017,09,07,02,49,14.00
2017,09,07,02,50,14.00
2017,09,07,02,51,14.00
2017,09,07,02,52,14.00
2017,09,07,02,53,14.00
2017,09,07,02,54,13.90
2017,09,07,02,55,13.90
2017,09,07,02,56,13.90
2017,09,07,02,57,13.90
2017,09,07,02,58,13.90
2017,09,07,02,59,13.90
2017,09,07,03,00,13.90
2017,09,07,03,01,13.90
2017,09,07,03,02,13.90
2017,09,07,03,03,13.90
2017,09,07,03,04,13.90
2017,09,07,03,05,13.90
2017,09,07,03,06,13.90
2017,09,07,03,07,13.90
2017,09,07,03,08,13.90
2017,09,07,03,09,13.90
2017,09,07,03,10,13.90
2017,09,07,03,11,13.90
2017,09,07,03,12,13.80
2017,09,07,03,13,13.80
2017,09,07,03,14,13.80
2017,09,07,03,15,13.80
2017,09,07,03,16,13.80
2017,09,07,03,17,13.80
2017,09,07,03,18,13.80
2017,09,07,03,19,13.80
2017,09,07,03,20,13.80
2017,09,07,03,21,13.80
2017,09,07,03,22,13.80
2017,09,07,03,23,13.80
2017,09,07,03,24,13.80
2017,09,07,03,25,13.80
2017,09,07,03,26,13.90
2017,09,07,03,27,13.80
2017,09,07,03,28,13.80
2017,09,07,03,29,13.80
2017,09,07,03,30,13.80
2017,09,07,03,31,13.80
2017,09,07,03,32,13.80
2017,09,07,03,33,13.80
2017,09,07,03,34,13.80
2017,09,07,03,35,13.80
2017,09,07,03,36,13.80
2017,09,07,03,37,13.80
2017,09,07,03,38,13.80
2017,09,07,03,39,13.80
2017,09,07,03,40,13.80
2017,09,07,03,41,13.80
2017,09,07,03,42,13.80
2017,09,07,03,43,13.80
2017,09,07,03,44,13.80
2017,09,07,03,45,13.80
2017,09,07,03,46,13.80
2017,09,07,03,47,13.80
2017,09,07,03,48,13.80
2017,09,07,03,49,13.80
2017,09,07,03,50,13.80
2017,09,07,03,51,13.80
2017,09,07,03,52,13.80
2017,09,07,03,53,13.80
2017,09,07,03,54,13.80
2017,09,07,03,55,13.80
2017,09,07,03,56,13.80
2017,09,07,03,57,13.80
2017,09,07,03,58,13.80
2017,09,07,03,59,13.80
2017,09,07,04,00,13.80
2017,09,07,04,01,13.80
2017,09,07,04,02,13.80
2017,09,07,04,03,13.80
2017,09,07,04,04,13.80
2017,09,07,04,05,13.80
2017,09,07,04,06,13.80
2017,09,07,04,07,13.80
2017,09,07,04,08,13.80
2017,09,07,04,09,13.80
2017,09,07,04,10,13.80
2017,09,07,04,11,13.80
2017,09,07,04,12,13.80
2017,09,07,04,13,13.80
2017,09,07,04,14,13.80
2017,09,07,04,15,13.80
2017,09,07,04,16,13.80
2017,09,07,04,17,13.70
2017,09,07,04,18,13.70
2017,09,07,04,19,13.70
2017,09,07,04,20,13.70
2017,09,07,04,21,13.70
2017,09,07,04,22,13.70
2017,09,07,04,23,13.70
2017,09,07,04,24,13.80
2017,09,07,04,25,13.80
2017,09,07,04,26,13.80
2017,09,07,04,27,13.80
2017,09,07,04,28,13.80
2017,09,07,04,29,13.80
2017,09,07,04,30,13.80
2017,09,07,04,31,13.70
2017,09,07,04,32,13.70
2017,09,07,04,33,13.70
2017,09,07,04,34,13.70
2017,09,07,04,35,13.70
2017,09,07,04,36,13.70
2017,09,07,04,37,13.70
2017,09,07,04,38,13.70
2017,09,07,04,39,13.70
2017,09,07,04,40,13.70
2017,09,07,04,41,13.70
2017,09,07,04,42,13.70
2017,09,07,04,43,13.70
2017,09,07,04,44,13.70
2017,09,07,04,45,13.60
2017,09,07,04,46,13.60
2017,09,07,04,47,13.60
2017,09,07,04,48,13.60
2017,09,07,04,49,13.60
2017,09,07,04,50,13.60
2017,09,07,04,51,13.60
2017,09,07,04,52,13.60
2017,09,07,04,53,13.60
2017,09,07,04,54,13.60
2017,09,07,04,55,13.60
2017,09,07,04,56,13.60
2017,09,07,04,57,13.60
2017,09,07,04,58,13.60
2017,09,07,04,59,13.60
2017,09,07,05,00,13.60
2017,09,07,05,01,13.60
2017,09,07,05,02,13.60
2017,09,07,05,03,13.60
2017,09,07,05,04,13.60
2017,09,07,05,05,13.60
2017,09,07,05,06,13.60
2017,09,07,05,07,13.60
2017,09,07,05,08,13.60
2017,09,07,05,09,13.60
2017,09,07,05,10,13.60
2017,09,07,05,11,13.60
2017,09,07,05,12,13.60
2017,09,07,05,13,13.60
2017,09,07,05,14,13.60
2017,09,07,05,15,13.70
2017,09,07,05,16,13.70
2017,09,07,05,17,13.70
2017,09,07,05,18,13.70
2017,09,07,05,19,13.70
2017,09,07,05,20,13.70
2017,09,07,05,21,13.70
2017,09,07,05,22,13.70
2017,09,07,05,23,13.70
2017,09,07,05,24,13.70
2017,09,07,05,25,13.70
2017,09,07,05,26,13.70
2017,09,07,05,27,13.80
2017,09,07,05,28,13.80
2017,09,07,05,29,13.90
2017,09,07,05,30,13.90
2017,09,07,05,31,13.90
2017,09,07,05,32,13.90
2017,09,07,05,33,13.90
2017,09,07,05,34,13.90
2017,09,07,05,35,13.90
2017,09,07,05,36,13.90
2017,09,07,05,37,13.90
2017,09,07,05,38,13.90
2017,09,07,05,39,13.90
2017,09,07,05,40,13.90
2017,09,07,05,41,13.90
2017,09,07,05,42,13.90
2017,09,07,05,43,13.90
2017,09,07,05,44,13.90
2017,09,07,05,45,13.90
2017,09,07,05,46,13.90
2017,09,07,05,47,13.90
2017,09,07,05,48,13.80
2017,09,07,05,49,13.80
2017,09,07,05,50,13.80
2017,09,07,05,51,13.80
2017,09,07,05,52,13.80
2017,09,07,05,53,13.80
2017,09,07,05,54,13.80
2017,09,07,05,55,13.80
2017,09,07,05,56,13.80
2017,09,07,05,57,13.80
2017,09,07,05,58,13.80
2017,09,07,05,59,13.80
2017,09,07,06,00,13.80
2017,09,07,06,01,13.70
2017,09,07,06,02,13.70
2017,09,07,06,03,13.70
2017,09,07,06,04,13.70
2017,09,07,06,05,13.70
2017,09,07,06,06,13.70
2017,09,07,06,07,13.70
2017,09,07,06,08,13.70
2017,09,07,06,09,13.70
2017,09,07,06,10,13.70
2017,09,07,06,11,13.70
2017,09,07,06,12,13.70
2017,09,07,06,13,13.70
2017,09,07,06,14,13.70
2017,09,07,06,15,13.70
2017,09,07,06,16,13.70
2017,09,07,06,17,13.70
2017,09,07,06,18,13.70
2017,09,07,06,19,13.70
2017,09,07,06,20,13.70
2017,09,07,06,21,13.70
2017,09,07,06,22,13.70
2017,09,07,06,23,13.70
2017,09,07,06,24,13.70
2017,09,07,06,25,13.70
2017,09,07,06,26,13.70
2017,09,07,06,27,13.70
2017,09,07,06,28,13.70
2017,09,07,06,29,13.70
2017,09,07,06,30,13.70
2017,09,07,06,31,13.70
2017,09,07,06,32,13.70
2017,09,07,06,33,13.70
2017,09,07,06,34,13.70
2017,09,07,06,35,13.70
2017,09,07,06,36,13.60
2017,09,07,06,37,13.60
2017,09,07,06,38,13.60
2017,09,07,06,39,13.60
2017,09,07,06,40,13.60
2017,09,07,06,41,13.60
2017,09,07,06,42,13.60
2017,09,07,06,43,13.60
2017,09,07,06,44,13.60
2017,09,07,06,45,13.60
2017,09,07,06,46,13.60
2017,09,07,06,47,13.60
2017,09,07,06,48,13.60
2017,09,07,06,49,13.50
2017,09,07,06,50,13.50
2017,09,07,06,51,13.50
2017,09,07,06,52,13.50
2017,09,07,06,53,13.50
2017,09,07,06,54,13.50
2017,09,07,06,55,13.50
2017,09,07,06,56,13.50
2017,09,07,06,57,13.50
2017,09,07,06,58,13.50
2017,09,07,06,59,13.50
2017,09,07,07,00,13.50
2017,09,07,07,01,13.50
2017,09,07,07,02,13.50
2017,09,07,07,03,13.50
2017,09,07,07,04,13.50
2017,09,07,07,05,13.50
2017,09,07,07,06,13.50
2017,09,07,07,07,13.50
2017,09,07,07,08,13.40
2017,09,07,07,09,13.40
2017,09,07,07,10,13.40
2017,09,07,07,11,13.40
2017,09,07,07,12,13.50
2017,09,07,07,13,13.50
2017,09,07,07,14,13.50
2017,09,07,07,15,13.50
2017,09,07,07,16,13.50
2017,09,07,07,17,13.50
2017,09,07,07,18,13.50
2017,09,07,07,19,13.40
2017,09,07,07,20,13.40
2017,09,07,07,21,13.40
2017,09,07,07,22,13.40
2017,09,07,07,23,13.40
2017,09,07,07,24,13.40
2017,09,07,07,25,13.50
2017,09,07,07,26,13.50
2017,09,07,07,27,13.50
2017,09,07,07,28,13.50
2017,09,07,07,29,13.50
2017,09,07,07,30,13.50
2017,09,07,07,31,13.50
2017,09,07,07,32,13.60
2017,09,07,07,33,13.60
2017,09,07,07,34,13.60
2017,09,07,07,35,13.60
2017,09,07,07,36,13.60
2017,09,07,07,37,13.60
2017,09,07,07,38,13.60
2017,09,07,07,39,13.60
2017,09,07,07,40,13.60
2017,09,07,07,41,13.70
2017,09,07,07,42,13.70
2017,09,07,07,43,13.70
2017,09,07,07,44,13.70
2017,09,07,07,45,13.70
2017,09,07,07,46,13.70
2017,09,07,07,47,13.80
2017,09,07,07,48,13.80
2017,09,07,07,49,13.80
2017,09,07,07,50,13.80
2017,09,07,07,51,13.90
2017,09,07,07,52,13.90
2017,09,07,07,53,14.00
2017,09,07,07,54,14.00
2017,09,07,07,55,14.10
2017,09,07,07,56,14.10
2017,09,07,07,57,14.10
2017,09,07,07,58,14.10
2017,09,07,07,59,14.20
2017,09,07,08,00,14.20
2017,09,07,08,01,14.20
2017,09,07,08,02,14.30
2017,09,07,08,03,14.30
2017,09,07,08,04,14.30
2017,09,07,08,05,14.40
2017,09,07,08,06,14.40
2017,09,07,08,07,14.50
2017,09,07,08,08,14.50
2017,09,07,08,09,14.60
2017,09,07,08,10,14.60
2017,09,07,08,11,14.70
2017,09,07,08,12,14.70
2017,09,07,08,13,14.70
2017,09,07,08,14,14.80
2017,09,07,08,15,14.80
2017,09,07,08,16,14.80
2017,09,07,08,17,14.80
2017,09,07,08,18,14.80
2017,09,07,08,19,14.80
2017,09,07,08,20,14.80
2017,09,07,08,21,14.80
2017,09,07,08,22,14.80
2017,09,07,08,23,14.80
2017,09,07,08,24,14.90
2017,09,07,08,25,14.90
2017,09,07,08,26,14.90
2017,09,07,08,27,15.00
2017,09,07,08,28,15.00
2017,09,07,08,29,15.00
2017,09,07,08,30,15.00
2017,09,07,08,31,15.10
2017,09,07,08,32,15.10
2017,09,07,08,33,15.10
2017,09,07,08,34,15.20
2017,09,07,08,35,15.20
2017,09,07,08,36,15.20
2017,09,07,08,37,15.20
2017,09,07,08,38,15.20
2017,09,07,08,39,15.20
2017,09,07,08,40,15.20
2017,09,07,08,41,15.20
2017,09,07,08,42,15.20
2017,09,07,08,43,15.20
2017,09,07,08,44,15.30
2017,09,07,08,45,15.30
2017,09,07,08,46,15.30
2017,09,07,08,47,15.30
2017,09,07,08,48,15.30
2017,09,07,08,49,15.30
2017,09,07,08,50,15.30
2017,09,07,08,51,15.30
2017,09,07,08,52,15.30
2017,09,07,08,53,15.40
2017,09,07,08,54,15.40
2017,09,07,08,55,15.40
2017,09,07,08,56,15.50
2017,09,07,08,57,15.50
2017,09,07,08,58,15.60
2017,09,07,08,59,15.60
2017,09,07,09,00,15.60
2017,09,07,09,01,15.60
2017,09,07,09,02,15.70
2017,09,07,09,03,15.70
2017,09,07,09,04,15.70
2017,09,07,09,05,15.80
2017,09,07,09,06,15.80
2017,09,07,09,07,15.80
2017,09,07,09,08,15.80
2017,09,07,09,09,15.80
2017,09,07,09,10,15.80
2017,09,07,09,11,15.80
2017,09,07,09,12,15.90
2017,09,07,09,13,15.90
2017,09,07,09,14,15.80
2017,09,07,09,15,15.80
2017,09,07,09,16,15.80
2017,09,07,09,17,15.80
2017,09,07,09,18,15.80
2017,09,07,09,19,15.80
2017,09,07,09,20,15.80
2017,09,07,09,21,15.80
2017,09,07,09,22,15.80
2017,09,07,09,23,15.80
2017,09,07,09,24,15.80
2017,09,07,09,25,15.80
2017,09,07,09,26,15.80
2017,09,07,09,27,15.80
2017,09,07,09,28,15.80
2017,09,07,09,29,15.80
2017,09,07,09,30,15.80
2017,09,07,09,31,15.80
2017,09,07,09,32,15.80
2017,09,07,09,33,15.90
2017,09,07,09,34,15.90
2017,09,07,09,35,15.90
2017,09,07,09,36,16.00
2017,09,07,09,37,16.00
2017,09,07,09,38,16.10
2017,09,07,09,39,16.10
2017,09,07,09,40,16.10
2017,09,07,09,41,16.20
2017,09,07,09,42,16.20
2017,09,07,09,43,16.20
2017,09,07,09,44,16.30
2017,09,07,09,45,16.30
2017,09,07,09,46,16.30
2017,09,07,09,47,16.30
2017,09,07,09,48,16.40
2017,09,07,09,49,16.40
2017,09,07,09,50,16.40
2017,09,07,09,51,16.40
2017,09,07,09,52,16.50
2017,09,07,09,53,16.50
2017,09,07,09,54,16.50
2017,09,07,09,55,16.60
2017,09,07,09,56,16.70
2017,09,07,09,57,16.70
2017,09,07,09,58,16.70
2017,09,07,09,59,16.70
2017,09,07,10,00,16.80
2017,09,07,10,01,16.80
2017,09,07,10,02,16.80
2017,09,07,10,03,16.80
2017,09,07,10,04,16.80
2017,09,07,10,05,16.80
2017,09,07,10,06,16.80
2017,09,07,10,07,16.80
2017,09,07,10,08,16.80
2017,09,07,10,09,16.80
2017,09,07,10,10,16.80
2017,09,07,10,11,16.80
2017,09,07,10,12,16.90
2017,09,07,10,13,16.90
2017,09,07,10,14,16.90
2017,09,07,10,15,16.90
2017,09,07,10,16,16.90
2017,09,07,10,17,17.00
2017,09,07,10,18,17.00
2017,09,07,10,19,17.00
2017,09,07,10,20,17.10
2017,09,07,10,21,17.10
2017,09,07,10,22,17.10
2017,09,07,10,23,17.10
2017,09,07,10,24,17.20
2017,09,07,10,25,17.20
2017,09,07,10,26,17.20
2017,09,07,10,27,17.30
2017,09,07,10,28,17.30
2017,09,07,10,29,17.30
2017,09,07,10,30,17.40
2017,09,07,10,31,17.40
2017,09,07,10,32,17.40
2017,09,07,10,33,17.50
2017,09,07,10,34,17.50
2017,09,07,10,35,17.50
2017,09,07,10,36,17.50
2017,09,07,10,37,17.50
2017,09,07,10,38,17.60
2017,09,07,10,39,17.60
2017,09,07,10,40,17.60
2017,09,07,10,41,17.50
2017,09,07,10,42,17.50
2017,09,07,10,43,17.50
2017,09,07,10,44,17.50
2017,09,07,10,45,17.50
2017,09,07,10,46,17.50
2017,09,07,10,47,17.50
2017,09,07,10,48,17.60
2017,09,07,10,49,17.60
2017,09,07,10,50,17.70
2017,09,07,10,51,17.70
2017,09,07,10,52,17.80
2017,09,07,10,53,17.80
2017,09,07,10,54,17.90
2017,09,07,10,55,17.90
2017,09,07,10,56,18.00
2017,09,07,10,57,18.10
2017,09,07,10,58,18.20
2017,09,07,10,59,18.30
2017,09,07,11,00,18.40
2017,09,07,11,01,18.50
2017,09,07,11,02,18.60
2017,09,07,11,03,18.70
2017,09,07,11,04,18.80
2017,09,07,11,05,18.90
2017,09,07,11,06,19.00
2017,09,07,11,07,19.10
2017,09,07,11,08,19.20
2017,09,07,11,09,19.30
2017,09,07,11,10,19.30
2017,09,07,11,11,19.40
2017,09,07,11,12,19.50
2017,09,07,11,13,19.60
2017,09,07,11,14,19.70
2017,09,07,11,15,19.70
2017,09,07,11,16,19.80
2017,09,07,11,17,19.80
2017,09,07,11,18,19.80
2017,09,07,11,19,19.90
2017,09,07,11,20,19.90
2017,09,07,11,21,19.90
2017,09,07,11,22,19.90
2017,09,07,11,23,19.80
2017,09,07,11,24,19.80
2017,09,07,11,25,19.80
2017,09,07,11,26,19.80
2017,09,07,11,27,19.70
2017,09,07,11,28,19.70
2017,09,07,11,29,19.60
2017,09,07,11,30,19.60
2017,09,07,11,31,19.50
2017,09,07,11,32,19.40
2017,09,07,11,33,19.40
2017,09,07,11,34,19.40
2017,09,07,11,35,19.30
2017,09,07,11,36,19.30
2017,09,07,11,37,19.30
2017,09,07,11,38,19.30
2017,09,07,11,39,19.20
2017,09,07,11,40,19.20
2017,09,07,11,41,19.20
2017,09,07,11,42,19.20
2017,09,07,11,43,19.20
2017,09,07,11,44,19.20
2017,09,07,11,45,19.20
2017,09,07,11,46,19.30
2017,09,07,11,47,19.30
2017,09,07,11,48,19.30
2017,09,07,11,49,19.30
2017,09,07,11,50,19.20
2017,09,07,11,51,19.20
2017,09,07,11,52,19.20
2017,09,07,11,53,19.20
2017,09,07,11,54,19.20
2017,09,07,11,55,19.30
2017,09,07,11,56,19.40
2017,09,07,11,57,19.50
2017,09,07,11,58,19.50
2017,09,07,11,59,19.60
2017,09,07,12,00,19.70
2017,09,07,12,01,19.80
2017,09,07,12,02,19.90
2017,09,07,12,03,20.00
2017,09,07,12,04,20.10
2017,09,07,12,05,20.20
2017,09,07,12,06,20.30
2017,09,07,12,07,20.30
2017,09,07,12,08,20.40
2017,09,07,12,09,20.40
2017,09,07,12,10,20.40
2017,09,07,12,11,20.40
2017,09,07,12,12,20.40
2017,09,07,12,13,20.30
2017,09,07,12,14,20.20
2017,09,07,12,15,20.20
2017,09,07,12,16,20.20
2017,09,07,12,17,20.20
2017,09,07,12,18,20.20
2017,09,07,12,19,20.10
2017,09,07,12,20,20.10
2017,09,07,12,21,20.10
2017,09,07,12,22,20.20
2017,09,07,12,23,20.30
2017,09,07,12,24,20.40
2017,09,07,12,25,20.40
2017,09,07,12,26,20.40
2017,09,07,12,27,20.40
2017,09,07,12,28,20.40
2017,09,07,12,29,20.40
2017,09,07,12,30,20.50
2017,09,07,12,31,20.50
2017,09,07,12,32,20.50
2017,09,07,12,33,20.60
2017,09,07,12,34,20.60
2017,09,07,12,35,20.50
2017,09,07,12,36,20.40
2017,09,07,12,37,20.30
2017,09,07,12,38,20.00
2017,09,07,12,39,19.80
2017,09,07,12,40,19.50
2017,09,07,12,41,19.30
2017,09,07,12,42,19.20
2017,09,07,12,43,19.00
2017,09,07,12,44,18.90
2017,09,07,12,45,18.80
2017,09,07,12,46,18.70
2017,09,07,12,47,18.60
2017,09,07,12,48,18.50
2017,09,07,12,49,18.50
2017,09,07,12,50,18.40
2017,09,07,12,51,18.40
2017,09,07,12,52,18.40
2017,09,07,12,53,18.50
2017,09,07,12,54,18.60
2017,09,07,12,55,18.60
2017,09,07,12,56,18.70
2017,09,07,12,57,18.70
2017,09,07,12,58,18.70
2017,09,07,12,59,18.70
2017,09,07,13,00,18.70
2017,09,07,13,01,18.70
2017,09,07,13,02,18.70
2017,09,07,13,03,18.70
2017,09,07,13,04,18.70
2017,09,07,13,05,18.80
2017,09,07,13,06,18.80
2017,09,07,13,07,18.80
2017,09,07,13,08,18.90
2017,09,07,13,09,18.90
2017,09,07,13,10,19.00
2017,09,07,13,11,19.00
2017,09,07,13,12,19.00
2017,09,07,13,13,19.10
2017,09,07,13,14,19.10
2017,09,07,13,15,19.10
2017,09,07,13,16,19.10
2017,09,07,13,17,19.10
2017,09,07,13,18,19.10
2017,09,07,13,19,19.10
2017,09,07,13,20,19.20
2017,09,07,13,21,19.20
2017,09,07,13,22,19.20
2017,09,07,13,23,19.20
2017,09,07,13,24,19.20
2017,09,07,13,25,19.20
2017,09,07,13,26,19.20
2017,09,07,13,27,19.30
2017,09,07,13,28,19.30
2017,09,07,13,29,19.30
2017,09,07,13,30,19.30
2017,09,07,13,31,19.40
2017,09,07,13,32,19.40
2017,09,07,13,33,19.40
2017,09,07,13,34,19.40
2017,09,07,13,35,19.40
2017,09,07,13,36,19.40
2017,09,07,13,37,19.40
2017,09,07,13,38,19.50
2017,09,07,13,39,19.60
2017,09,07,13,40,19.60
2017,09,07,13,41,19.60
2017,09,07,13,42,19.70
2017,09,07,13,43,19.70
2017,09,07,13,44,19.70
2017,09,07,13,45,19.70
2017,09,07,13,46,19.70
2017,09,07,13,47,19.80
2017,09,07,13,48,19.80
2017,09,07,13,49,19.80
2017,09,07,13,50,19.90
2017,09,07,13,51,19.90
2017,09,07,13,52,19.90
2017,09,07,13,53,19.90
2017,09,07,13,54,19.90
2017,09,07,13,55,20.00
2017,09,07,13,56,20.00
2017,09,07,13,57,20.10
2017,09,07,13,58,20.10
2017,09,07,13,59,20.10
2017,09,07,14,00,20.20
2017,09,07,14,01,20.20
2017,09,07,14,02,20.30
2017,09,07,14,03,20.30
2017,09,07,14,04,20.40
2017,09,07,14,05,20.50
2017,09,07,14,06,20.60
2017,09,07,14,07,20.60
2017,09,07,14,08,20.70
2017,09,07,14,09,20.70
2017,09,07,14,10,20.70
2017,09,07,14,11,20.70
2017,09,07,14,12,20.80
2017,09,07,14,13,20.80
2017,09,07,14,14,20.90
2017,09,07,14,15,21.00
2017,09,07,14,16,21.00
2017,09,07,14,17,21.00
2017,09,07,14,18,21.10
2017,09,07,14,19,21.10
2017,09,07,14,20,21.00
2017,09,07,14,21,21.00
2017,09,07,14,22,20.80
2017,09,07,14,23,20.80
2017,09,07,14,24,20.70
2017,09,07,14,25,20.70
2017,09,07,14,26,20.60
2017,09,07,14,27,20.50
2017,09,07,14,28,20.40
2017,09,07,14,29,20.20
2017,09,07,14,30,20.10
2017,09,07,14,31,19.90
2017,09,07,14,32,19.70
2017,09,07,14,33,19.60
2017,09,07,14,34,19.60
2017,09,07,14,35,19.50
2017,09,07,14,36,19.40
2017,09,07,14,37,19.40
2017,09,07,14,38,19.30
2017,09,07,14,39,19.30
2017,09,07,14,40,19.20
2017,09,07,14,41,19.20
2017,09,07,14,42,19.30
2017,09,07,14,43,19.30
2017,09,07,14,44,19.40
2017,09,07,14,45,19.40
2017,09,07,14,46,19.50
2017,09,07,14,47,19.40
2017,09,07,14,48,19.40
2017,09,07,14,49,19.50
2017,09,07,14,50,19.50
2017,09,07,14,51,19.50
2017,09,07,14,52,19.50
2017,09,07,14,53,19.50
2017,09,07,14,54,19.50
2017,09,07,14,55,19.50
2017,09,07,14,56,19.50
2017,09,07,14,57,19.50
2017,09,07,14,58,19.50
2017,09,07,14,59,19.60
2017,09,07,15,00,19.60
2017,09,07,15,01,19.60
2017,09,07,15,02,19.60
2017,09,07,15,03,19.60
2017,09,07,15,04,19.70
2017,09,07,15,05,19.70
2017,09,07,15,06,19.70
2017,09,07,15,07,19.70
2017,09,07,15,08,19.70
2017,09,07,15,09,19.70
2017,09,07,15,10,19.70
2017,09,07,15,11,19.80
2017,09,07,15,12,19.80
2017,09,07,15,13,19.90
2017,09,07,15,14,19.90
2017,09,07,15,15,20.00
2017,09,07,15,16,20.00
2017,09,07,15,17,20.10
2017,09,07,15,18,20.20
2017,09,07,15,19,20.20
2017,09,07,15,20,20.20
2017,09,07,15,21,20.30
2017,09,07,15,22,20.30
2017,09,07,15,23,20.30
2017,09,07,15,24,20.40
2017,09,07,15,25,20.40
2017,09,07,15,26,20.50
2017,09,07,15,27,20.50
2017,09,07,15,28,20.60
2017,09,07,15,29,20.60
2017,09,07,15,30,20.60
2017,09,07,15,31,20.50
2017,09,07,15,32,20.50
2017,09,07,15,33,20.50
2017,09,07,15,34,20.50
2017,09,07,15,35,20.60
2017,09,07,15,36,20.70
2017,09,07,15,37,20.70
2017,09,07,15,38,20.80
2017,09,07,15,39,20.90
2017,09,07,15,40,20.90
2017,09,07,15,41,21.00
2017,09,07,15,42,21.00
2017,09,07,15,43,21.10
2017,09,07,15,44,21.10
2017,09,07,15,45,21.10
2017,09,07,15,46,21.20
2017,09,07,15,47,21.20
2017,09,07,15,48,21.20
2017,09,07,15,49,21.30
2017,09,07,15,50,21.30
2017,09,07,15,51,21.40
2017,09,07,15,52,21.50
2017,09,07,15,53,21.60
2017,09,07,15,54,21.70
2017,09,07,15,55,21.80
2017,09,07,15,56,21.80
2017,09,07,15,57,21.70
2017,09,07,15,58,21.70
2017,09,07,15,59,21.70
2017,09,07,16,00,21.80
2017,09,07,16,01,21.80
2017,09,07,16,02,21.80
2017,09,07,16,03,21.80
2017,09,07,16,04,21.90
2017,09,07,16,05,21.90
2017,09,07,16,06,21.90
2017,09,07,16,07,21.90
2017,09,07,16,08,22.00
2017,09,07,16,09,22.00
2017,09,07,16,10,22.00
2017,09,07,16,11,21.90
2017,09,07,16,12,21.90
2017,09,07,16,13,21.90
2017,09,07,16,14,21.80
2017,09,07,16,15,21.70
2017,09,07,16,16,21.60
2017,09,07,16,17,21.40
2017,09,07,16,18,21.30
2017,09,07,16,19,21.20
2017,09,07,16,20,21.10
2017,09,07,16,21,21.10
2017,09,07,16,22,21.00
2017,09,07,16,23,20.90
2017,09,07,16,24,20.80
2017,09,07,16,25,20.80
2017,09,07,16,26,20.80
2017,09,07,16,27,20.80
2017,09,07,16,28,20.80
2017,09,07,16,29,20.80
2017,09,07,16,30,20.70
2017,09,07,16,31,20.70
2017,09,07,16,32,20.70
2017,09,07,16,33,20.70
2017,09,07,16,34,20.70
2017,09,07,16,35,20.60
2017,09,07,16,36,20.60
2017,09,07,16,37,20.60
2017,09,07,16,38,20.70
2017,09,07,16,39,20.70
2017,09,07,16,40,20.70
2017,09,07,16,41,20.60
2017,09,07,16,42,20.60
2017,09,07,16,43,20.50
2017,09,07,16,44,20.40
2017,09,07,16,45,20.40
2017,09,07,16,46,20.40
2017,09,07,16,47,20.30
2017,09,07,16,48,20.30
2017,09,07,16,49,20.30
2017,09,07,16,50,20.30
2017,09,07,16,51,20.30
2017,09,07,16,52,20.30
2017,09,07,16,53,20.40
2017,09,07,16,54,20.40
2017,09,07,16,55,20.50
2017,09,07,16,56,20.50
2017,09,07,16,57,20.60
2017,09,07,16,58,20.60
2017,09,07,16,59,20.70
2017,09,07,17,00,20.70
2017,09,07,17,01,20.80
2017,09,07,17,02,20.80
2017,09,07,17,03,20.80
2017,09,07,17,04,20.80
2017,09,07,17,05,20.80
2017,09,07,17,06,20.90
2017,09,07,17,07,20.90
2017,09,07,17,08,20.90
2017,09,07,17,09,20.90
2017,09,07,17,10,20.90
2017,09,07,17,11,20.90
2017,09,07,17,12,20.90
2017,09,07,17,13,20.80
2017,09,07,17,14,20.80
2017,09,07,17,15,20.80
2017,09,07,17,16,20.80
2017,09,07,17,17,20.80
2017,09,07,17,18,20.80
2017,09,07,17,19,20.80